Flag for South Korea Weather past 2 weeks in Daegu, South Korea

Now
61 °F

Clear.


Feels Like: 61 °F
Forecast: 59 / 88 °F
Wind: 3 mph from Northwest

Location: Taegu Ab

Current Time: May 26, 2015 at 5:39:19 AM

Latest Report: May 26, 2015 at 5:00 AM


Visibility: 10 mi

Pressure: 29.83 "Hg

Humidity: 36%

Dew point: 34 °F

Location of DaeguLocation

Historic Weather in Daegu — Graph

°F

Daegu temperature yesterday

Maximum temperature yesterday: 88 °F (at 4:00 PM)
Minimum temperature yesterday: 57 °F (at 5:00 AM)
Average temperature yesterday: 74 °F

Past Weeks' High & Low Weather Summary

 TemperatureHumidityPressure
High88 °F (May 25, 4:00 PM)100% (May 19, 5:00 AM)30.09 "Hg (May 19, 5:00 AM)
Low48 °F (May 21, 5:00 AM)12% (May 16, 4:12 PM)29.47 "Hg (May 12, 2:00 AM)
Average69 °F53%29.76 "Hg
* Reported May 11 4:00 AM — May 26 4:00 AM, Daegu, Weather by CustomWeather, © 2015

Note: Actual official high and low records may vary slightly from our data, if they occured in-between our weather recording intervals... More about our weather records

Advertising

Daegu weather history for previous 24 hours

 ConditionsComfort  
Time TempWeatherWind HumidityBarometerVisibility
4:00 AM
Tue, May 26
63 °FClear.2 mph64%29.80 "Hg10 mi
3:00 AM63 °FClear.1 mph64%29.80 "Hg10 mi
2:00 AM64 °FClear.3 mph60%29.80 "Hg10 mi
1:00 AM66 °FClear.1 mph56%29.80 "Hg10 mi
12:00 AM68 °FClear.1 mph53%29.77 "Hg10 mi
11:00 PM
Mon, May 25
70 °FClear.1 mph50%29.77 "Hg10 mi
10:00 PM73 °FClear.3 mph41%29.77 "Hg10 mi
9:00 PM75 °FClear.1 mph36%29.74 "Hg10 mi
8:00 PM81 °FClear.5 mph28%29.71 "Hg10 mi
7:00 PM86 °FSunny.9 mph22%29.68 "Hg10 mi
6:00 PM86 °FSunny.6 mph22%29.68 "Hg10 mi
5:00 PM88 °FSunny.10 mph19%29.68 "Hg10 mi
4:00 PM88 °FSunny.8 mph18%29.68 "Hg10 mi
3:00 PM86 °FPassing clouds.9 mph20%29.68 "HgN/A
2:00 PM86 °FPassing clouds.7 mph20%29.68 "HgN/A
1:00 PM84 °FSunny.8 mph22%29.71 "Hg10 mi
12:00 PM82 °FSunny.6 mph20%29.74 "Hg10 mi
11:00 AM81 °FSunny.7 mph21%29.74 "Hg10 mi
10:00 AM77 °FSunny.6 mph26%29.77 "Hg10 mi
9:00 AM72 °FSunny.2 mph47%29.77 "Hg10 mi
8:00 AM66 °FSunny.2 mph60%29.77 "Hg10 mi
7:00 AM61 °FSunny.1 mph77%29.77 "Hg10 mi
6:00 AM57 °FSunny.1 mph77%29.77 "Hg10 mi
5:00 AM57 °FClear.1 mph77%29.77 "Hg10 mi
Weather by CustomWeather, © 2015

See weather overviewHow to use our weather pages